EW2785 Weather Reports


time (UTC)temp
C
wind
direction
speed
KPH
gust
KPH
rain 1hr
cm
rain 24hr
cm
rain mn
cm
humidity
%
barometer
mb
20260509114547 1 317 0.0 4.8 0.00 0.00 0.00 92 1013.5
20260509113047 0 26 0.0 4.8 0.00 0.00 0.00 92 1013.5
20260509111546 0 86 0.0 0.0 0.00 0.00 0.00 92 1013.7
20260509110046 -1 86 0.0 0.0 0.00 0.00 0.00 91 1013.7
20260509104545 -1 86 0.0 0.0 0.00 0.00 0.00 91 1013.6
20260509103051 -2 86 0.0 0.0 0.00 0.00 0.00 90 1013.5
20260509101543 -2 86 0.0 0.0 0.00 0.00 0.00 90 1013.6
20260509100042 -2 86 0.0 0.0 0.00 0.00 0.00 90 1013.6
20260509094553 -2 86 0.0 0.0 0.00 0.00 0.00 90 1013.5
20260509093042 -2 86 0.0 0.0 0.00 0.00 0.00 90 1013.4
20260509091549 -1 86 0.0 0.0 0.00 0.00 0.00 90 1013.3
20260509090051 -1 86 0.0 0.0 0.00 0.00 0.00 90 1013.2
20260509084541 -1 86 0.0 0.0 0.00 0.00 0.00 89 1013.2
20260509083040 -1 86 0.0 3.2 0.00 0.00 0.00 89 1013.1
20260509081536 -1 167 0.0 0.0 0.00 0.00 0.00 89 1013.0
20260509080044 -1 167 0.0 0.0 0.00 0.00 0.00 89 1012.9
20260509074543 -1 167 0.0 0.0 0.00 0.00 0.00 88 1012.9
20260509073045 -1 167 0.0 0.0 0.00 0.00 0.00 88 1013.0
20260509071531 -1 167 0.0 0.0 0.00 0.00 0.00 88 1013.1
20260509070030 -1 167 0.0 0.0 0.00 0.00 0.00 88 1013.3
20260509064529 -1 167 0.0 0.0 0.00 0.00 0.00 88 1013.4
20260509063031 0 167 0.0 0.0 0.00 0.00 0.00 88 1013.5
20260509061526 0 167 0.0 0.0 0.00 0.00 0.00 88 1013.5
20260509060029 0 167 0.0 0.0 0.00 0.00 0.00 87 1013.6
20260509054522 0 167 0.0 1.6 0.00 0.00 0.00 87 1013.6
20260509053030 0 167 0.0 0.0 0.00 0.00 0.00 86 1013.5
20260509051519 0 167 0.0 0.0 0.00 0.00 0.00 86 1013.5
20260509050016 0 167 0.0 1.6 0.00 0.00 0.00 85 1013.2
20260509044513 1 167 0.0 0.0 0.00 0.00 0.00 84 1013.1
20260509043020 1 167 0.0 0.0 0.00 0.00 0.00 84 1012.9
20260509041512 1 167 0.0 0.0 0.00 0.00 0.00 83 1012.9
20260509040009 2 167 0.0 0.0 0.00 0.00 0.00 82 1012.9
20260509034505 2 167 0.0 0.0 0.00 0.00 0.00 82 1012.8
20260509033005 2 167 0.0 0.0 0.00 0.00 0.00 81 1012.8
20260509031504 3 167 0.0 0.0 0.00 0.00 0.00 80 1012.7
20260509030001 3 167 0.0 0.0 0.00 0.00 0.00 79 1012.7
20260509024608 3 167 0.0 0.0 0.00 0.00 0.00 78 1012.5
20260509023059 4 167 0.0 0.0 0.00 0.00 0.00 75 1012.3
20260509021559 5 167 0.0 0.0 0.00 0.00 0.00 73 1012.3
20260509020111 5 167 0.0 0.0 0.00 0.00 0.00 72 1012.1
20260509014555 6 167 0.0 0.0 0.00 0.00 0.00 70 1012.0
20260509013056 6 167 0.0 0.0 0.00 0.00 0.00 68 1011.8
20260509011558 7 167 0.0 0.0 0.00 0.00 0.00 66 1011.5
20260509010048 8 167 0.0 1.6 0.00 0.00 0.00 62 1011.2
20260509004549 8 167 0.0 0.0 0.00 0.00 0.00 59 1011.0
20260509003053 8 167 0.0 4.8 0.00 0.00 0.00 59 1010.8
20260509001544 9 179 0.0 8.0 0.00 0.00 0.00 59 1010.6
20260509000042 9 172 0.0 3.2 0.00 0.00 0.00 58 1010.5
20260508234541 10 169 0.0 1.6 0.00 0.00 0.00 58 1010.4
20260508233045 10 187 0.0 11.3 0.00 0.00 0.00 58 1010.2
20260508231546 10 163 0.0 11.3 0.00 0.00 0.00 56 1010.2
20260508230043 10 182 0.0 8.0 0.00 0.00 0.00 55 1010.1
20260508224550 10 151 0.0 9.7 0.00 0.00 0.00 53 1009.9
20260508223041 10 168 0.0 11.3 0.00 0.00 0.00 53 1009.9
20260508221539 11 169 1.6 14.5 0.00 0.00 0.00 47 1009.7
20260508220046 11 191 1.6 9.7 0.00 0.00 0.00 39 1009.6
20260508214544 11 187 1.6 11.3 0.00 0.00 0.00 39 1009.4
20260508213040 11 232 6.4 17.7 0.00 0.00 0.00 37 1009.4
20260508211537 12 258 0.0 4.8 0.00 0.00 0.00 40 1009.2
20260508210038 11 193 0.0 6.4 0.00 0.00 0.00 39 1009.3
20260508204538 11 295 4.8 16.1 0.00 0.00 0.00 38 1009.2
20260508203037 12 263 1.6 20.9 0.00 0.00 0.00 39 1009.1
20260508201536 12 216 3.2 14.5 0.00 0.00 0.00 38 1009.0
20260508200037 12 169 0.0 19.3 0.00 0.00 0.00 36 1009.0
20260508194534 12 290 0.0 9.7 0.00 0.00 0.00 42 1009.2
20260508193035 12 239 0.0 9.7 0.00 0.00 0.00 40 1009.1
20260508191543 11 207 0.0 11.3 0.00 0.00 0.00 40 1009.2
20260508190040 11 273 1.6 12.9 0.00 0.00 0.00 40 1009.2
20260508184536 12 170 0.0 14.5 0.00 0.00 0.00 39 1009.3
20260508183035 12 156 1.6 9.7 0.00 0.00 0.00 42 1009.3
20260508181539 11 207 3.2 12.9 0.00 0.00 0.00 40 1009.5
20260508180028 11 179 1.6 11.3 0.00 0.00 0.00 42 1009.5
20260508174531 11 244 1.6 20.9 0.00 0.00 0.00 40 1009.6
20260508173026 11 159 1.6 9.7 0.00 0.00 0.00 41 1009.6
20260508171527 11 180 1.6 11.3 0.00 0.00 0.00 42 1009.6
20260508170024 10 266 3.2 16.1 0.00 0.00 0.00 42 1009.6
20260508164523 10 184 3.2 12.9 0.00 0.00 0.00 42 1009.7
20260508163022 10 288 0.0 11.3 0.00 0.00 0.00 45 1009.8
20260508161538 10 298 0.0 6.4 0.00 0.00 0.00 43 1009.8
20260508160021 10 155 1.6 9.7 0.00 0.00 0.00 44 1009.9
20260508154522 10 276 3.2 11.3 0.00 0.00 0.00 47 1009.9
20260508153034 10 212 1.6 16.1 0.00 0.00 0.00 49 1010.0
20260508151517 10 294 4.8 14.5 0.00 0.00 0.00 50 1009.8
20260508150016 10 123 6.4 16.1 0.00 0.00 0.00 44 1009.6
20260508144516 9 243 1.6 22.5 0.00 0.00 0.00 47 1009.8
20260508143014 9 284 3.2 19.3 0.00 0.00 0.00 47 1009.9
20260508141512 8 163 9.7 29.0 0.00 0.00 0.00 47 1010.0
20260508140010 8 165 4.8 19.3 0.00 0.00 0.00 47 1009.9
20260508134511 8 153 4.8 16.1 0.00 0.00 0.00 51 1010.0
20260508133005 8 257 4.8 32.2 0.00 0.00 0.00 53 1010.1
20260508131501 7 195 0.0 19.3 0.00 0.00 0.00 56 1010.1
20260508130057 6 180 3.2 11.3 0.00 0.00 0.00 58 1010.2
20260508124553 6 164 3.2 11.3 0.00 0.00 0.00 61 1010.3
20260508123051 5 160 3.2 17.7 0.00 0.00 0.00 65 1010.4
20260508121547 4 195 0.0 6.4 0.00 0.00 0.00 80 1010.4
20260508120041 3 181 0.0 6.4 0.00 0.00 0.00 90 1010.4